Location: Volkssternwarte_EN
(51.3230°N, 7.4010°E)
Time: 14:19:21
(UTC+02:00)

N. Korean satellite - Pass Details

Date: 03 October 2021
Orbit: 450 x 495 km, 97.3° (Epoch: 23 October)

Event Time Altitude Azimuth Distance (km) Brightness Sun altitude
Rises 06:26:37 0° 19° (NNE) 2,552 10.6 -11.4°
Reaches altitude 10° 06:28:47 10° 28° (NNE) 1,675 9.8 -11.1°
Maximum altitude 06:32:11 38° 98° (E) 760 8.2 -10.5°
Drops below altitude 10° 06:35:35 10° 168° (SSE) 1,681 9.4 -10.0°
Sets 06:37:45 0° 176° (S) 2,562 10.2 -9.7°
